User: anonymous   Login
Location: Coyote Lake
(37.1190°N, 121.5480°W)
Time: 04:03:09
(UTC-07:00)
Language:

Tiangong 2 - Orbit

View from above orbital plane
View from above orbital plane
View from above satellite
View from above satellite

Ground track
Ground track

The orbit data is extracted from the following two-line orbital elements,

1 41765U 16057A   18264.76864715 +.00003128 +00000-0 +42985-4 0  9993
2 41765 042.7841 126.0563 0007438 221.6378 182.0950 15.59504249115102
Epoch (UTC): 21 September 2018 18:26:51
Eccentricity: 0.0007438
inclination: 42.7841°
perigee height: 384 km
apogee height: 394 km
right ascension of ascending node: 126.0563°
argument of perigee: 221.6378°
revolutions per day: 15.59504249
mean anomaly at epoch: 182.0950°
orbit number at epoch: 11510

The dashed part of the orbit path shows where the satellite is in the earth's shadow,  

DLR